Location: Poprad
(49.0500°N, 20.3000°E)
Time: 22:15:08
(UTC+01:00)

BlueWalker 3 - Pass Details

Date: 01 December 2023
Orbit: 485 x 499 km, 53.2° (Epoch: 03 March)

Event Time Altitude Azimuth Distance (km) Brightness Sun altitude
Exits shadow 03:54:16 19° 82° (E) 1,221 4.5 -31.4°
Drops below altitude 10° 03:55:32 10° 89° (E) 1,696 5.5 -31.2°
Sets 03:57:45 0° 95° (E) 2,574 6.7 -30.8°
